sat.trackr.live / text

‹ back to catalog

STARLINK-36742

NORAD 67907 · 2026-036D

PAYLOAD ACTIVE UNKNOWN

§ Identity

Operator
Country
US
Launch date
2026-02-22
Launch site
AFETR
Launch vehicle
Mass (kg)
RCS (m²)

Purposes: comms

External: N2YO · Heavens-Above · Gunter

§ Orbital elements

Epoch: 2026-09-19T04:45:57.134880Z

Period
94.27 min
Inclination
42.9989°
Eccentricity
0.0001289
Mean motion
15.27592294 rev/d
Perigee alt
482.1 km
Apogee alt
483.9 km
Semi-major
6,861.1 km
B*
3.6197e-4
RAAN
232.7078°
Arg perigee
273.7516°
Mean anomaly
86.3188°
Rev number
3,331

§ Raw data

STARLINK-367421 67907U 26036D   26262.19857795  .00009715  00000+0  36197-3 0  99952 67907  42.9989 232.7078 0001289 273.7516  86.3188 15.27592294 33312

JSON: /api/v1/satellites/67907 · /tle

For live sub-satellite position, see the globe view (requires WebGL).

§ Visibility from observer

Set your observer location to see the next 7 days of passes ≥ 10°. The values pass through the URL so the page stays shareable.

No JS? Fill the form by hand. The geolocation button needs JavaScript.